sat.trackr.live / text

‹ back to catalog

STARLINK-31160

NORAD 58749 · 2024-005X

PAYLOAD ACTIVE UNKNOWN

§ Identity

Operator
Country
US
Launch date
2024-01-07
Launch site
AFETR
Launch vehicle
Mass (kg)
RCS (m²)

Purposes: comms

External: N2YO · Heavens-Above · Gunter

§ Orbital elements

Epoch: 2026-05-25T00:27:19.705248Z

Period
94.27 min
Inclination
43.0028°
Eccentricity
0.0001707
Mean motion
15.27577880 rev/d
Perigee alt
481.9 km
Apogee alt
484.2 km
Semi-major
6,861.2 km
B*
-6.1579e-5
RAAN
148.9308°
Arg perigee
274.2731°
Mean anomaly
85.7926°
Rev number
13,211

§ Raw data

STARLINK-311601 58749U 24005X   26145.01897807 -.00001956  00000+0 -61579-4 0  99962 58749  43.0028 148.9308 0001707 274.2731  85.7926 15.27577880132111

JSON: /api/v1/satellites/58749 · /tle

For live sub-satellite position, see the globe view (requires WebGL).

§ Visibility from observer

Set your observer location to see the next 7 days of passes ≥ 10°. The values pass through the URL so the page stays shareable.

No JS? Fill the form by hand. The geolocation button needs JavaScript.